TimeCDT,TemperatureF,Dew PointF,Humidity,Sea Level PressureIn,VisibilityMPH,Wind Direction,Wind SpeedMPH,Gust SpeedMPH,PrecipitationIn,Events,Conditions,WindDirDegrees,DateUTC
12:15 AM,62.6,57.2,82,29.61,10.0,SW,13.8,20.7,N/A,,Light Drizzle,220,2013-05-31 05:15:00
12:35 AM,60.8,57.2,88,29.60,10.0,SW,11.5,-,N/A,,Scattered Clouds,220,2013-05-31 05:35:00
12:55 AM,60.8,55.4,82,29.59,10.0,SSW,13.8,-,N/A,,Mostly Cloudy,210,2013-05-31 05:55:00
1:15 AM,62.6,55.4,77,29.59,10.0,SSW,15.0,-,N/A,,Scattered Clouds,200,2013-05-31 06:15:00
1:35 AM,62.6,53.6,72,29.59,10.0,SSW,16.1,-,N/A,,Clear,200,2013-05-31 06:35:00
1:55 AM,60.8,53.6,77,29.58,10.0,South,19.6,26.5,N/A,,Clear,190,2013-05-31 06:55:00
2:15 AM,59.0,55.4,88,29.59,10.0,South,18.4,-,N/A,,Clear,190,2013-05-31 07:15:00
2:35 AM,59.0,55.4,88,29.59,10.0,SSW,17.3,26.5,N/A,,Clear,200,2013-05-31 07:35:00
2:55 AM,59.0,55.4,88,29.59,10.0,SSW,19.6,-,N/A,,Clear,210,2013-05-31 07:55:00
3:15 AM,59.0,55.4,88,29.59,10.0,SSW,20.7,26.5,N/A,,Clear,210,2013-05-31 08:15:00
3:35 AM,59.0,55.4,88,29.59,10.0,SSW,17.3,-,N/A,,Clear,210,2013-05-31 08:35:00
3:55 AM,59.0,55.4,88,29.59,10.0,SSW,18.4,-,N/A,,Clear,210,2013-05-31 08:55:00
4:15 AM,57.2,55.4,94,29.59,10.0,SSW,17.3,-,N/A,,Clear,210,2013-05-31 09:15:00
4:35 AM,57.2,55.4,94,29.59,10.0,SSW,16.1,25.3,N/A,,Clear,210,2013-05-31 09:35:00
4:55 AM,57.2,55.4,94,29.59,10.0,SSW,13.8,-,N/A,,Clear,210,2013-05-31 09:55:00
5:15 AM,57.2,53.6,88,29.58,10.0,SSW,11.5,-,N/A,,Clear,210,2013-05-31 10:15:00
5:35 AM,55.4,53.6,94,29.58,10.0,South,13.8,-,N/A,,Clear,190,2013-05-31 10:35:00
5:55 AM,55.4,55.4,100,29.58,10.0,SSW,13.8,-,N/A,,Clear,200,2013-05-31 10:55:00
6:15 AM,57.2,55.4,94,29.57,10.0,SSW,11.5,18.4,N/A,,Clear,210,2013-05-31 11:15:00
6:35 AM,57.2,55.4,94,29.58,10.0,SSW,12.7,-,N/A,,Clear,210,2013-05-31 11:35:00
6:55 AM,57.2,55.4,94,29.58,10.0,SSW,13.8,-,N/A,,Clear,210,2013-05-31 11:55:00
7:15 AM,59.0,55.4,88,29.57,10.0,SSW,15.0,-,N/A,,Clear,210,2013-05-31 12:15:00
7:35 AM,60.8,55.4,82,29.58,-9999.0,SW,12.7,18.4,N/A,,Clear,220,2013-05-31 12:35:00
7:55 AM,60.8,55.4,82,29.59,10.0,SW,11.5,-,N/A,,Clear,220,2013-05-31 12:55:00
8:15 AM,62.6,55.4,77,29.59,10.0,SSW,15.0,24.2,N/A,,Clear,210,2013-05-31 13:15:00
8:35 AM,62.6,55.4,77,29.59,10.0,SW,17.3,-,N/A,,Clear,220,2013-05-31 13:35:00
8:55 AM,62.6,53.6,72,29.60,10.0,WSW,18.4,26.5,N/A,,Clear,240,2013-05-31 13:55:00
9:15 AM,64.4,53.6,68,29.60,10.0,SW,18.4,24.2,N/A,,Clear,230,2013-05-31 14:15:00
9:35 AM,64.4,53.6,68,29.60,10.0,SW,17.3,-,N/A,,Clear,220,2013-05-31 14:35:00
9:55 AM,64.4,55.4,73,29.60,10.0,SW,19.6,-,N/A,,Clear,220,2013-05-31 14:55:00
10:15 AM,64.4,55.4,73,29.60,10.0,SSW,17.3,24.2,N/A,,Clear,210,2013-05-31 15:15:00
10:35 AM,66.2,55.4,68,29.60,10.0,SW,18.4,25.3,N/A,,Clear,230,2013-05-31 15:35:00
10:55 AM,66.2,55.4,68,29.60,10.0,SSW,21.9,-,N/A,,Clear,210,2013-05-31 15:55:00
11:15 AM,68.0,55.4,64,29.60,10.0,SSW,21.9,-,N/A,,Clear,210,2013-05-31 16:15:00
11:35 AM,68.0,55.4,64,29.60,10.0,SSW,24.2,-,N/A,,Clear,200,2013-05-31 16:35:00
11:55 AM,69.8,53.6,56,29.61,10.0,SW,25.3,34.5,N/A,,Clear,220,2013-05-31 16:55:00
12:15 PM,71.6,53.6,53,29.60,10.0,SW,28.8,34.5,N/A,,Clear,230,2013-05-31 17:15:00
12:35 PM,71.6,51.8,50,29.60,10.0,SW,26.5,34.5,N/A,,Clear,230,2013-05-31 17:35:00
12:55 PM,73.4,53.6,50,29.59,10.0,SW,24.2,32.2,N/A,,Clear,220,2013-05-31 17:55:00
1:15 PM,73.4,51.8,47,29.59,10.0,SW,28.8,38.0,N/A,,Clear,230,2013-05-31 18:15:00
1:35 PM,75.2,50.0,41,29.59,10.0,SW,31.1,41.4,N/A,,Clear,220,2013-05-31 18:35:00
1:55 PM,75.2,53.6,47,29.58,10.0,SSW,31.1,40.3,N/A,,Clear,210,2013-05-31 18:55:00
2:15 PM,75.2,53.6,47,29.58,10.0,SSW,29.9,38.0,N/A,,Clear,210,2013-05-31 19:15:00
2:35 PM,75.2,53.6,47,29.58,10.0,SW,26.5,38.0,N/A,,Partly Cloudy,220,2013-05-31 19:35:00
2:55 PM,75.2,53.6,47,29.58,10.0,SSW,29.9,39.1,N/A,,Partly Cloudy,210,2013-05-31 19:55:00
3:15 PM,75.2,51.8,44,29.58,10.0,SSW,28.8,35.7,N/A,,Scattered Clouds,210,2013-05-31 20:15:00
3:35 PM,73.4,51.8,47,29.58,10.0,SW,28.8,39.1,N/A,,Scattered Clouds,220,2013-05-31 20:35:00
3:55 PM,75.2,51.8,44,29.58,10.0,SW,26.5,36.8,N/A,,Scattered Clouds,230,2013-05-31 20:55:00
4:15 PM,75.2,51.8,44,29.58,10.0,SW,25.3,32.2,N/A,,Mostly Cloudy,220,2013-05-31 21:15:00
4:35 PM,75.2,51.8,44,29.58,10.0,SW,31.1,36.8,N/A,,Scattered Clouds,220,2013-05-31 21:35:00
4:55 PM,73.4,50.0,44,29.58,10.0,SW,25.3,35.7,N/A,,Mostly Cloudy,220,2013-05-31 21:55:00
5:15 PM,75.2,50.0,41,29.58,10.0,SW,29.9,39.1,N/A,,Mostly Cloudy,230,2013-05-31 22:15:00
5:35 PM,73.4,50.0,44,29.58,10.0,WSW,27.6,33.4,N/A,,Scattered Clouds,240,2013-05-31 22:35:00
5:55 PM,73.4,50.0,44,29.58,10.0,WSW,21.9,29.9,N/A,,Scattered Clouds,240,2013-05-31 22:55:00
6:15 PM,71.6,50.0,46,29.58,10.0,WSW,18.4,28.8,N/A,,Scattered Clouds,250,2013-05-31 23:15:00
6:35 PM,71.6,50.0,46,29.58,10.0,WSW,16.1,21.9,N/A,,Mostly Cloudy,250,2013-05-31 23:35:00
6:55 PM,71.6,51.8,50,29.58,10.0,WSW,13.8,20.7,N/A,,Mostly Cloudy,240,2013-05-31 23:55:00
7:15 PM,71.6,50.0,46,29.58,10.0,WSW,13.8,20.7,N/A,,Mostly Cloudy,250,2013-06-01 00:15:00
7:35 PM,69.8,50.0,49,29.58,10.0,WSW,17.3,-,N/A,,Scattered Clouds,250,2013-06-01 00:35:00
7:55 PM,68.0,50.0,52,29.58,10.0,WSW,15.0,-,N/A,,Partly Cloudy,250,2013-06-01 00:55:00
8:15 PM,69.8,50.0,49,29.58,10.0,WSW,15.0,-,N/A,,Mostly Cloudy,250,2013-06-01 01:15:00
8:35 PM,68.0,48.2,49,29.58,10.0,WSW,18.4,-,N/A,,Mostly Cloudy,250,2013-06-01 01:35:00
8:55 PM,68.0,48.2,49,29.59,10.0,WSW,19.6,26.5,N/A,,Partly Cloudy,250,2013-06-01 01:55:00
9:15 PM,66.2,48.2,52,29.59,10.0,WSW,15.0,-,N/A,,Clear,250,2013-06-01 02:15:00
9:35 PM,64.4,48.2,56,29.60,10.0,WSW,11.5,-,N/A,,Clear,250,2013-06-01 02:35:00
9:55 PM,64.4,48.2,56,29.61,10.0,WSW,11.5,18.4,N/A,,Clear,250,2013-06-01 02:55:00
10:15 PM,62.6,50.0,63,29.61,10.0,West,8.1,-,N/A,,Clear,260,2013-06-01 03:15:00
10:35 PM,60.8,50.0,68,29.63,10.0,WSW,6.9,-,N/A,,Clear,250,2013-06-01 03:35:00
10:55 PM,60.8,50.0,68,29.62,10.0,WSW,6.9,-,N/A,,Clear,250,2013-06-01 03:55:00
11:15 PM,60.8,50.0,68,29.63,10.0,West,6.9,-,N/A,,Clear,270,2013-06-01 04:15:00
11:35 PM,59.0,50.0,72,29.63,10.0,West,9.2,-,N/A,,Scattered Clouds,280,2013-06-01 04:35:00
11:55 PM,57.2,51.8,82,29.62,10.0,West,9.2,-,N/A,,Scattered Clouds,260,2013-06-01 04:55:00